Overview Statistics Trail Chart Weather Telemetry Raw packets
 

This is the latest recevied weather packets stored in our database for station/object K7FLA. If no packets are shown the sender has not sent any weather packets the latest 10 day(s).

<< 18 19 20 21 22 23 24 >>
Time Temp. Humidity Pressure Rain* Wind** Luminosity Snow
1788548451 28.89° C 32% 1095.6 hPa 0 mm - 776 W/m² -
1788548148 30° C 34% 1095.6 hPa 0 mm - 769 W/m² -
1788547842 29.44° C 37% 1095.5 hPa 0 mm - 767 W/m² -
1788547536 29.44° C 35% 1095.7 hPa 0 mm - 759 W/m² -
1788547232 29.44° C 32% 1095.6 hPa 0 mm - 754 W/m² -
1788546927 29.44° C 35% 1095.5 hPa 0 mm - 753 W/m² -
1788546622 30° C 30% 1095.4 hPa 0 mm - 749 W/m² -
1788546318 29.44° C 33% 1095.6 hPa 0 mm - 741 W/m² -
1788546018 28.89° C 36% 1095.5 hPa 0 mm - 729 W/m² -
1788545713 28.89° C 35% 1095.5 hPa 0 mm - 722 W/m² -
1788545408 28.89° C 32% 1095.7 hPa 0 mm - 716 W/m² -
1788545107 28.89° C 32% 1095.6 hPa 0 mm - 709 W/m² -
1788544803 29.44° C 33% 1095.7 hPa 0 mm - 702 W/m² -
1788544502 29.44° C 33% 1095.6 hPa 0 mm - 692 W/m² -
1788544196 29.44° C 32% 1095.5 hPa 0 mm - 685 W/m² -
1788543891 28.89° C 34% 1095.4 hPa 0 mm - 674 W/m² -
1788543587 28.89° C 33% 1095.5 hPa 0 mm - 666 W/m² -
1788543281 28.33° C 34% 1095.4 hPa 0 mm - 655 W/m² -
1788542977 28.33° C 32% 1095.6 hPa 0 mm - 643 W/m² -
1788542672 28.33° C 34% 1095.4 hPa 0 mm - 629 W/m² -
1788542367 28.33° C 34% 1095.4 hPa 0 mm - 616 W/m² -
1788542062 27.78° C 38% 1095.3 hPa 0 mm - 600 W/m² -
1788541758 27.78° C 36% 1095.1 hPa 0 mm - 586 W/m² -
1788541453 27.78° C 37% 1095.4 hPa 0 mm - 573 W/m² -
1788541148 27.78° C 38% 1095.4 hPa 0 mm - 560 W/m² -

* Rain latest hour (hover to see other rain measurements)
** Current wind speed in m/s (hover to see current wind gust speed)